This demonstration page uses our WeatherBlox Daily Observations layout. Learn more.

Left ArrowRight Arrow

41.55636, -103.73856

Hourly Observations for November 27, 2019

Temp ( °F °C ) Dew Point ( °F °C ) Humidity (%) Winds ( mph kmh ) Pressure ( in mb ) Visibility ( mi km ) Precip ( " mm )
12:58 am 00:58 Mostly Cloudy with Light Snow 20 -6.9 18 -7.9 93 93 NW 9 15 29.99 1016 5 8 N/A
1:58 am 01:58 Mostly Cloudy with Light Snow 20 -6.7 17 -8.2 89 89 NNW 7 11 30.02 1017 10 16 N/A
2:58 am 02:58 Cloudy with Light Snow 20 -6.8 18 -7.7 93 93 NW 7 11 30.05 1018 10 16 N/A
3:58 am 03:58 Cloudy with Light Snow 20 -6.5 18 -7.8 91 91 NW 7 11 30.07 1018 10 16 N/A
4:58 am 04:58 Mostly Cloudy with Light Snow 20 -6.7 18 -8 91 91 NW 5 7 30.09 1019 10 16 N/A
5:58 am 05:58 Mostly Cloudy with Light Snow Showers 18 -7.6 16 -8.7 92 92 W 6 9 30.10 1019 10 16 N/A
6:58 am 06:58 Partly Cloudy 15 -9.2 13 -10.5 90 90 WSW 3 6 30.13 1020 10 16 N/A
7:58 am 07:58 Partly Cloudy 12 -11.2 10 -12.2 92 92 NW 5 7 30.16 1021 10 16 N/A
8:58 am 08:58 Partly Cloudy with Mist and Fog 9 -13 6 -14.2 91 91 SW 6 9 30.20 1023 1 2 N/A
9:58 am 09:58 Clear 5 -15.1 2 -16.9 86 86 WSW 6 9 30.24 1024 10 16 N/A
10:58 am 10:58 Clear 5 -14.9 2 -16.4 88 88 W 3 6 30.23 1024 10 16 N/A
11:58 am 11:58 Clear -2 -18.9 -6 -20.9 84 84 SW 8 13 30.26 1025 10 16 N/A
12:58 pm 12:58 Clear 1 -17.5 -6 -20.9 75 75 SW 6 9 30.29 1026 10 16 N/A
1:58 pm 13:58 Sunny 4 -15.7 1 -17 90 90 WSW 6 9 30.29 1026 10 16 N/A
2:58 pm 14:58 Sunny 6 -14.7 4 -15.6 93 93 SW 7 11 30.31 1027 10 16 N/A
3:58 pm 15:58 Partly Cloudy 12 -11.1 10 -12.4 90 90 SSW 7 11 30.30 1026 10 16 N/A
4:58 pm 16:58 Mostly Cloudy 16 -9 13 -10.8 87 87 N N/A 30.29 1026 10 16 0.02 0.51
5:58 pm 17:58 Mostly Sunny 18 -8 13 -10.3 84 84 S 10 17 30.28 1026 10 16 0.02 0.51
6:58 pm 18:58 Partly Cloudy 19 -7.3 14 -10 81 81 S 17 28 30.24 1024 10 16 N/A
7:58 pm 19:58 Sunny 20 -6.9 15 -9.6 81 81 S 21 33 30.24 1024 10 16 N/A
8:58 pm 20:58 Sunny with Light Snow Showers 20 -6.5 15 -9.5 80 80 SSE 17 28 30.24 1024 10 16 N/A
9:58 pm 21:58 Sunny 20 -6.8 13 -10.6 75 75 SSE 23 37 30.27 1025 10 16 N/A
10:58 pm 22:58 Sunny 18 -7.8 12 -11.3 76 76 SE 18 30 30.26 1025 10 16 N/A
11:58 pm 23:58 Mostly Cloudy 18 -7.8 12 -11.1 77 77 SE 17 28 30.28 1026 10 16 N/A

Powered by AerisWeather